Location: Plainartige
(45.6866°N, 1.7993°E)
Time: 16:56:29
(UTC+00:00)

Tiros 1 - Pass Details

Date: 03 June 2022
Orbit: 629 x 663 km, 48.4° (Epoch: 05 July)

Event Time Altitude Azimuth Distance (km) Brightness Sun altitude
Rises 00:51:05 0° 280° (W) 2,915 10.5 -20.7°
Reaches altitude 10° 00:53:26 10° 283° (WNW) 2,010 9.7 -20.6°
Maximum altitude 00:58:01 63° 5° (N) 709 7.5 -20.3°
Drops below altitude 10° 01:02:38 10° 87° (E) 2,022 9.9 -20.1°
Sets 01:04:59 0° 91° (E) 2,936 10.8 -20.0°
